Location: St. Louis
(38.6270°N, 90.1994°W)
Time: 16:54:44
(UTC-06:00)

Tiros 1 - Pass Details

Date: 02 December 2021
Orbit: 629 x 664 km, 48.4° (Epoch: 26 January)

Event Time Altitude Azimuth Distance (km) Brightness Sun altitude
Rises 20:06:54 0° 265° (W) 2,922 11.4 -39.8°
Reaches altitude 10° 20:09:22 10° 274° (W) 2,020 10.4 -40.3°
Enters shadow 20:09:34 11° 275° (W) 1,952 10.3 -40.4°
